^^
Your Local Weather - Clay, NY Station Historical Data
Daily Summary for April 26, 2017 Units:  English    Metric   Both
« Previous Day
Next Day »
Daily Weekly Monthly Yearly Custom
  High: Low: Average:
Temperature: 72.3 °F 50.5 °F 60.3 °F
Dew Point: 57.6 °F 46.6 °F 51.7 °F
Humidity: 89% 55% 74%
Wind Speed: 5.0mph 1.0mph 2.7mph
Wind Gust: 13.0mph - -
Wind- - East
Pressure: 29.85 in 29.66 in -
Precipitation: 0.00 in    
Historical Graphs
 
 
Tabular Data for April 26, 2017
Time Temperature Dew Point Pressure Wind Wind Speed Wind Gust Humidity Rainfall Rate (Hourly) solar
00:04 50.8 °F 47.1 °F 29.85 in East 3.0 mph 4.0 mph 87% 0.00 in 0 W/m2
00:10 50.7 °F 47.3 °F 29.85 in ESE 3.0 mph 3.0 mph 88% 0.00 in 0 W/m2
00:16 50.6 °F 47.2 °F 29.85 in East 3.0 mph 6.0 mph 88% 0.00 in 0 W/m2
00:22 50.5 °F 47.4 °F 29.85 in East 4.0 mph 4.0 mph 89% 0.00 in 0 W/m2
00:28 50.5 °F 47.4 °F 29.84 in East 4.0 mph 13.0 mph 89% 0.00 in 0 W/m2
00:34 50.6 °F 47.5 °F 29.84 in SE 4.0 mph 5.0 mph 89% 0.00 in 0 W/m2
00:40 50.7 °F 47.6 °F 29.84 in East 4.0 mph 6.0 mph 89% 0.00 in 0 W/m2
00:46 50.7 °F 47.6 °F 29.84 in ESE 4.0 mph 6.0 mph 89% 0.00 in 0 W/m2
00:52 50.8 °F 47.7 °F 29.84 in SE 4.0 mph 4.0 mph 89% 0.00 in 0 W/m2
00:58 50.8 °F 47.4 °F 29.84 in ENE 3.0 mph 5.0 mph 88% 0.00 in 0 W/m2
01:04 50.8 °F 47.4 °F 29.84 in East 3.0 mph 6.0 mph 88% 0.00 in 0 W/m2
01:10 50.8 °F 47.4 °F 29.84 in ENE 3.0 mph 3.0 mph 88% 0.00 in 0 W/m2
01:16 50.7 °F 47.3 °F 29.83 in NE 3.0 mph 3.0 mph 88% 0.00 in 0 W/m2
01:22 50.7 °F 47.3 °F 29.83 in East 3.0 mph 6.0 mph 88% 0.00 in 0 W/m2
01:28 50.6 °F 46.9 °F 29.83 in East 3.0 mph 6.0 mph 87% 0.00 in 0 W/m2
01:34 50.7 °F 47.0 °F 29.83 in ENE 3.0 mph 4.0 mph 87% 0.00 in 0 W/m2
01:40 50.7 °F 47.0 °F 29.83 in ESE 3.0 mph 7.0 mph 87% 0.00 in 0 W/m2
01:46 50.8 °F 47.1 °F 29.83 in East 3.0 mph 7.0 mph 87% 0.00 in 0 W/m2
01:52 50.8 °F 47.1 °F 29.83 in East 2.0 mph 3.0 mph 87% 0.00 in 0 W/m2
01:58 50.8 °F 46.8 °F 29.83 in ENE 3.0 mph 5.0 mph 86% 0.00 in 0 W/m2
02:04 50.9 °F 46.9 °F 29.83 in ESE 3.0 mph 10.0 mph 86% 0.00 in 0 W/m2
02:10 51.0 °F 47.0 °F 29.82 in East 4.0 mph 5.0 mph 86% 0.00 in 0 W/m2
02:16 51.0 °F 47.0 °F 29.82 in ENE 3.0 mph 5.0 mph 86% 0.00 in 0 W/m2
02:22 50.9 °F 46.9 °F 29.82 in SE 3.0 mph 3.0 mph 86% 0.00 in 0 W/m2
02:28 50.9 °F 46.9 °F 29.82 in East 3.0 mph 3.0 mph 86% 0.00 in 0 W/m2
02:34 51.0 °F 47.0 °F 29.82 in ENE 3.0 mph 3.0 mph 86% 0.00 in 0 W/m2
02:40 51.0 °F 47.0 °F 29.82 in East 2.0 mph 3.0 mph 86% 0.00 in 0 W/m2
02:46 51.0 °F 47.0 °F 29.82 in East 2.0 mph 3.0 mph 86% 0.00 in 0 W/m2
02:52 50.9 °F 46.9 °F 29.82 in East 1.0 mph 1.0 mph 86% 0.00 in 0 W/m2
02:58 50.9 °F 46.9 °F 29.82 in NE 2.0 mph 3.0 mph 86% 0.00 in 0 W/m2
03:04 51.0 °F 47.0 °F 29.82 in ENE 3.0 mph 3.0 mph 86% 0.00 in 0 W/m2
03:10 51.0 °F 47.0 °F 29.82 in East 2.0 mph 2.0 mph 86% 0.00 in 0 W/m2
03:16 50.9 °F 46.9 °F 29.82 in East 2.0 mph 5.0 mph 86% 0.00 in 0 W/m2
03:22 51.0 °F 47.0 °F 29.82 in NE 3.0 mph 3.0 mph 86% 0.00 in 0 W/m2
03:28 51.0 °F 47.0 °F 29.82 in East 3.0 mph 6.0 mph 86% 0.00 in 0 W/m2
03:34 51.0 °F 47.0 °F 29.82 in NE 3.0 mph 4.0 mph 86% 0.00 in 0 W/m2
03:40 51.0 °F 47.0 °F 29.82 in East 2.0 mph 2.0 mph 86% 0.00 in 0 W/m2
03:46 51.0 °F 47.0 °F 29.82 in East 2.0 mph 3.0 mph 86% 0.00 in 0 W/m2
03:52 51.0 °F 47.0 °F 29.82 in ESE 3.0 mph 3.0 mph 86% 0.00 in 0 W/m2
03:58 51.0 °F 47.0 °F 29.81 in NE 3.0 mph 6.0 mph 86% 0.00 in 0 W/m2
04:04 51.0 °F 47.0 °F 29.82 in ENE 3.0 mph 5.0 mph 86% 0.00 in 0 W/m2
04:10 51.1 °F 47.1 °F 29.81 in East 3.0 mph 3.0 mph 86% 0.00 in 0 W/m2
04:16 51.1 °F 47.1 °F 29.81 in ENE 3.0 mph 3.0 mph 86% 0.00 in 0 W/m2
04:22 51.1 °F 46.7 °F 29.81 in ENE 3.0 mph 3.0 mph 85% 0.00 in 0 W/m2
04:28 51.1 °F 46.7 °F 29.81 in East 3.0 mph 3.0 mph 85% 0.00 in 0 W/m2
04:34 51.1 °F 46.7 °F 29.81 in ENE 3.0 mph 7.0 mph 85% 0.00 in 0 W/m2
04:40 51.1 °F 46.7 °F 29.81 in East 3.0 mph 3.0 mph 85% 0.00 in 0 W/m2
04:46 51.1 °F 46.7 °F 29.80 in SE 2.0 mph 3.0 mph 85% 0.00 in 0 W/m2
04:52 51.1 °F 46.7 °F 29.80 in East 2.0 mph 3.0 mph 85% 0.00 in 0 W/m2
04:58 51.1 °F 46.7 °F 29.80 in ENE 3.0 mph 7.0 mph 85% 0.00 in 0 W/m2
05:04 51.1 °F 46.7 °F 29.80 in ENE 3.0 mph 3.0 mph 85% 0.00 in 0 W/m2
05:10 51.1 °F 46.7 °F 29.80 in East 3.0 mph 3.0 mph 85% 0.00 in 0 W/m2
05:16 51.2 °F 46.8 °F 29.81 in ENE 4.0 mph 4.0 mph 85% 0.00 in 0 W/m2
05:22 51.1 °F 46.7 °F 29.81 in ENE 2.0 mph 3.0 mph 85% 0.00 in 0 W/m2
05:28 51.1 °F 46.7 °F 29.81 in ENE 2.0 mph 3.0 mph 85% 0.00 in 0 W/m2
05:34 51.1 °F 46.7 °F 29.81 in ENE 2.0 mph 5.0 mph 85% 0.00 in 0 W/m2
05:40 51.1 °F 46.7 °F 29.81 in ENE 2.0 mph 3.0 mph 85% 0.00 in 0 W/m2
05:46 51.1 °F 46.7 °F 29.80 in East 2.0 mph 4.0 mph 85% 0.00 in 0 W/m2
05:52 51.1 °F 46.7 °F 29.80 in East 2.0 mph 6.0 mph 85% 0.00 in 0 W/m2
05:58 51.0 °F 46.6 °F 29.80 in ENE 2.0 mph 6.0 mph 85% 0.00 in 0 W/m2
06:04 51.0 °F 46.6 °F 29.80 in ENE 3.0 mph 3.0 mph 85% 0.00 in 0 W/m2
06:10 51.1 °F 46.7 °F 29.80 in East 3.0 mph 5.0 mph 85% 0.00 in 0 W/m2
06:16 51.1 °F 46.7 °F 29.80 in ENE 3.0 mph 7.0 mph 85% 0.00 in 5 W/m2
06:22 51.1 °F 46.7 °F 29.80 in ENE 3.0 mph 3.0 mph 85% 0.00 in 9 W/m2
06:28 51.0 °F 47.0 °F 29.80 in East 2.0 mph 3.0 mph 86% 0.00 in 14 W/m2
06:34 51.0 °F 46.6 °F 29.80 in ENE 3.0 mph 5.0 mph 85% 0.00 in 21 W/m2
06:40 51.0 °F 46.6 °F 29.80 in East 3.0 mph 3.0 mph 85% 0.00 in 26 W/m2
06:46 51.0 °F 47.0 °F 29.80 in East 2.0 mph 3.0 mph 86% 0.00 in 33 W/m2
06:52 51.0 °F 47.0 °F 29.80 in East 2.0 mph 3.0 mph 86% 0.00 in 40 W/m2
06:58 51.0 °F 47.0 °F 29.80 in East 2.0 mph 3.0 mph 86% 0.00 in 49 W/m2
07:04 51.1 °F 47.1 °F 29.80 in NE 2.0 mph 3.0 mph 86% 0.00 in 58 W/m2
07:10 51.2 °F 47.2 °F 29.80 in ENE 2.0 mph 2.0 mph 86% 0.00 in 67 W/m2
07:16 51.4 °F 47.4 °F 29.79 in East 2.0 mph 4.0 mph 86% 0.00 in 77 W/m2
07:22 51.6 °F 47.5 °F 29.79 in East 2.0 mph 2.0 mph 86% 0.00 in 88 W/m2
07:28 51.7 °F 47.3 °F 29.80 in East 2.0 mph 3.0 mph 85% 0.00 in 97 W/m2
07:34 52.0 °F 47.6 °F 29.80 in NE 2.0 mph 3.0 mph 85% 0.00 in 90 W/m2
07:40 52.3 °F 47.9 °F 29.80 in SE 2.0 mph 3.0 mph 85% 0.00 in 102 W/m2
07:46 52.4 °F 47.7 °F 29.80 in ESE 3.0 mph 3.0 mph 84% 0.00 in 125 W/m2
07:52 52.6 °F 47.9 °F 29.80 in ENE 3.0 mph 4.0 mph 84% 0.00 in 132 W/m2
07:58 52.9 °F 48.2 °F 29.79 in East 2.0 mph 4.0 mph 84% 0.00 in 142 W/m2
08:06 53.2 °F 48.2 °F 29.80 in ESE 2.0 mph 3.0 mph 83% 0.00 in 149 W/m2
08:12 53.5 °F 48.5 °F 29.79 in East 3.0 mph 3.0 mph 83% 0.00 in 250 W/m2
08:18 53.8 °F 48.4 °F 29.80 in ENE 4.0 mph 8.0 mph 82% 0.00 in 176 W/m2
08:24 53.8 °F 48.4 °F 29.80 in ENE 5.0 mph 5.0 mph 82% 0.00 in 200 W/m2
08:30 53.8 °F 48.1 °F 29.80 in SE 5.0 mph 5.0 mph 81% 0.00 in 225 W/m2
08:36 54.2 °F 48.5 °F 29.80 in SE 4.0 mph 5.0 mph 81% 0.00 in 237 W/m2
08:42 54.6 °F 48.9 °F 29.80 in NE 3.0 mph 4.0 mph 81% 0.00 in 264 W/m2
08:48 55.0 °F 48.9 °F 29.79 in SE 3.0 mph 4.0 mph 80% 0.00 in 279 W/m2
08:54 55.3 °F 48.9 °F 29.79 in ENE 2.0 mph 4.0 mph 79% 0.00 in 338 W/m2
09:00 55.9 °F 49.5 °F 29.79 in ENE 3.0 mph 3.0 mph 79% 0.00 in 278 W/m2
09:06 55.9 °F 49.1 °F 29.79 in East 3.0 mph 5.0 mph 78% 0.00 in 246 W/m2
09:12 55.8 °F 49.0 °F 29.79 in East 3.0 mph 4.0 mph 78% 0.00 in 255 W/m2
09:18 55.9 °F 49.1 °F 29.79 in ESE 2.0 mph 4.0 mph 78% 0.00 in 294 W/m2
09:24 56.1 °F 49.7 °F 29.79 in ENE 3.0 mph 4.0 mph 79% 0.00 in 320 W/m2
09:30 56.3 °F 49.2 °F 29.79 in East 3.0 mph 7.0 mph 77% 0.00 in 283 W/m2
09:36 56.4 °F 49.6 °F 29.78 in East 3.0 mph 7.0 mph 78% 0.00 in 318 W/m2
09:42 56.9 °F 49.8 °F 29.78 in East 3.0 mph 7.0 mph 77% 0.00 in 480 W/m2
09:48 56.9 °F 49.4 °F 29.78 in East 4.0 mph 9.0 mph 76% 0.00 in 519 W/m2
09:54 57.6 °F 50.1 °F 29.78 in NE 4.0 mph 5.0 mph 76% 0.00 in 520 W/m2
10:00 58.2 °F 50.7 °F 29.78 in East 3.0 mph 3.0 mph 76% 0.00 in 592 W/m2
10:06 58.1 °F 50.2 °F 29.77 in ENE 4.0 mph 5.0 mph 75% 0.00 in 424 W/m2
10:12 57.8 °F 49.9 °F 29.78 in ENE 4.0 mph 4.0 mph 75% 0.00 in 410 W/m2
10:18 57.9 °F 50.0 °F 29.78 in East 4.0 mph 6.0 mph 75% 0.00 in 408 W/m2
10:24 58.3 °F 50.4 °F 29.79 in NNE 4.0 mph 7.0 mph 75% 0.00 in 401 W/m2
10:30 58.5 °F 50.2 °F 29.79 in SE 3.0 mph 3.0 mph 74% 0.00 in 397 W/m2
10:36 58.8 °F 50.5 °F 29.79 in NE 3.0 mph 3.0 mph 74% 0.00 in 341 W/m2
10:42 58.8 °F 50.2 °F 29.79 in ENE 4.0 mph 4.0 mph 73% 0.00 in 396 W/m2
10:48 59.5 °F 50.8 °F 29.79 in NE 3.0 mph 4.0 mph 73% 0.00 in 387 W/m2
10:54 59.2 °F 51.3 °F 29.79 in ENE 2.0 mph 6.0 mph 75% 0.00 in 287 W/m2
10:56 59.2 °F 50.9 °F 29.79 in ENE 2.0 mph 6.0 mph 74% 0.00 in 271 W/m2
11:02 58.7 °F 50.8 °F 29.79 in NNE 2.0 mph 5.0 mph 75% 0.00 in 253 W/m2
11:08 58.5 °F 50.6 °F 29.79 in NE 3.0 mph 5.0 mph 75% 0.00 in 339 W/m2
11:14 58.9 °F 51.0 °F 29.79 in NNW 4.0 mph 5.0 mph 75% 0.00 in 640 W/m2
11:20 60.2 °F 52.6 °F 29.79 in NE 3.0 mph 5.0 mph 76% 0.00 in 729 W/m2
11:26 60.7 °F 52.4 °F 29.79 in NNE 3.0 mph 5.0 mph 74% 0.00 in 856 W/m2
11:32 60.6 °F 51.5 °F 29.79 in NE 4.0 mph 6.0 mph 72% 0.00 in 846 W/m2
11:38 61.2 °F 51.3 °F 29.78 in North 5.0 mph 6.0 mph 70% 0.00 in 902 W/m2
11:44 61.7 °F 51.8 °F 29.78 in North 5.0 mph 8.0 mph 70% 0.00 in 868 W/m2
11:50 61.8 °F 51.5 °F 29.78 in ENE 4.0 mph 5.0 mph 69% 0.00 in 784 W/m2
11:56 61.2 °F 51.3 °F 29.78 in ENE 3.0 mph 7.0 mph 70% 0.00 in 1056 W/m2
12:02 61.8 °F 53.1 °F 29.78 in North 3.0 mph 4.0 mph 73% 0.00 in 928 W/m2
12:08 62.7 °F 52.4 °F 29.77 in NNE 3.0 mph 5.0 mph 69% 0.00 in 904 W/m2
12:14 62.2 °F 51.5 °F 29.77 in East 3.0 mph 9.0 mph 68% 0.00 in 902 W/m2
12:19 62.1 °F 53.0 °F 29.77 in East 3.0 mph 7.0 mph 72% 0.00 in 904 W/m2
12:26 62.8 °F 53.3 °F 29.77 in ESE 3.0 mph 7.0 mph 71% 0.00 in 905 W/m2
12:32 62.5 °F 53.0 °F 29.77 in ENE 4.0 mph 7.0 mph 71% 0.00 in 902 W/m2
12:38 63.3 °F 53.3 °F 29.77 in NNW 5.0 mph 7.0 mph 70% 0.00 in 909 W/m2
12:44 63.8 °F 52.6 °F 29.76 in NNE 5.0 mph 7.0 mph 67% 0.00 in 902 W/m2
12:50 64.3 °F 53.5 °F 29.76 in ESE 3.0 mph 3.0 mph 68% 0.00 in 907 W/m2
12:56 64.2 °F 53.0 °F 29.76 in NE 3.0 mph 5.0 mph 67% 0.00 in 904 W/m2
13:02 65.3 °F 54.9 °F 29.75 in East 3.0 mph 5.0 mph 69% 0.00 in 905 W/m2
13:08 65.9 °F 53.4 °F 29.75 in North 3.0 mph 5.0 mph 64% 0.00 in 905 W/m2
13:14 65.9 °F 53.8 °F 29.75 in NNE 3.0 mph 4.0 mph 65% 0.00 in 902 W/m2
13:20 65.5 °F 53.8 °F 29.75 in ESE 3.0 mph 3.0 mph 66% 0.00 in 896 W/m2
13:26 65.7 °F 54.8 °F 29.74 in ENE 4.0 mph 4.0 mph 68% 0.00 in 893 W/m2
13:32 66.3 °F 55.4 °F 29.74 in NNE 3.0 mph 3.0 mph 68% 0.00 in 889 W/m2
13:38 66.4 °F 55.5 °F 29.74 in NE 2.0 mph 3.0 mph 68% 0.00 in 886 W/m2
13:44 66.7 °F 54.6 °F 29.74 in North 3.0 mph 4.0 mph 65% 0.00 in 881 W/m2
13:50 67.2 °F 55.0 °F 29.74 in NE 2.0 mph 2.0 mph 65% 0.00 in 879 W/m2
13:56 67.4 °F 54.4 °F 29.74 in NE 3.0 mph 4.0 mph 63% 0.00 in 874 W/m2
14:02 67.6 °F 55.4 °F 29.73 in ESE 3.0 mph 4.0 mph 65% 0.00 in 868 W/m2
14:08 67.6 °F 55.4 °F 29.73 in South 3.0 mph 5.0 mph 65% 0.00 in 861 W/m2
14:14 68.4 °F 54.9 °F 29.73 in ENE 3.0 mph 3.0 mph 62% 0.00 in 856 W/m2
14:20 68.8 °F 56.1 °F 29.73 in ENE 2.0 mph 3.0 mph 64% 0.00 in 849 W/m2
14:26 68.4 °F 55.3 °F 29.72 in SE 2.0 mph 3.0 mph 63% 0.00 in 842 W/m2
14:32 69.1 °F 55.1 °F 29.72 in NNE 3.0 mph 3.0 mph 61% 0.00 in 833 W/m2
14:38 69.2 °F 54.7 °F 29.72 in NNE 2.0 mph 4.0 mph 60% 0.00 in 824 W/m2
14:44 69.2 °F 54.7 °F 29.72 in North 3.0 mph 7.0 mph 60% 0.00 in 816 W/m2
14:50 69.7 °F 55.6 °F 29.72 in East 3.0 mph 3.0 mph 61% 0.00 in 807 W/m2
14:56 70.2 °F 56.6 °F 29.71 in NNW 2.0 mph 4.0 mph 62% 0.00 in 798 W/m2
15:02 70.4 °F 54.9 °F 29.71 in North 2.0 mph 2.0 mph 58% 0.00 in 788 W/m2
15:08 70.9 °F 57.2 °F 29.71 in ENE 2.0 mph 2.0 mph 62% 0.00 in 775 W/m2
15:14 70.3 °F 55.3 °F 29.70 in NNW 2.0 mph 3.0 mph 59% 0.00 in 765 W/m2
15:20 71.0 °F 55.0 °F 29.70 in North 3.0 mph 3.0 mph 57% 0.00 in 752 W/m2
15:26 71.1 °F 56.5 °F 29.70 in NNE 3.0 mph 5.0 mph 60% 0.00 in 740 W/m2
15:32 71.5 °F 56.4 °F 29.70 in NNW 3.0 mph 3.0 mph 59% 0.00 in 729 W/m2
15:38 71.4 °F 56.3 °F 29.70 in North 3.0 mph 4.0 mph 59% 0.00 in 715 W/m2
15:44 71.3 °F 56.2 °F 29.69 in SE 3.0 mph 4.0 mph 59% 0.00 in 703 W/m2
15:50 71.9 °F 55.8 °F 29.69 in NNE 3.0 mph 4.0 mph 57% 0.00 in 691 W/m2
15:56 71.5 °F 56.4 °F 29.69 in SE 3.0 mph 4.0 mph 59% 0.00 in 675 W/m2
16:02 71.2 °F 55.7 °F 29.69 in NE 3.0 mph 5.0 mph 58% 0.00 in 661 W/m2
16:08 71.6 °F 55.6 °F 29.69 in NNE 4.0 mph 5.0 mph 57% 0.00 in 647 W/m2
16:14 72.3 °F 55.7 °F 29.69 in NE 3.0 mph 4.0 mph 56% 0.00 in 633 W/m2
16:20 71.9 °F 56.8 °F 29.68 in East 3.0 mph 3.0 mph 59% 0.00 in 619 W/m2
16:26 71.8 °F 57.6 °F 29.68 in ENE 3.0 mph 4.0 mph 61% 0.00 in 603 W/m2
16:32 72.3 °F 56.2 °F 29.68 in North 3.0 mph 4.0 mph 57% 0.00 in 584 W/m2
16:38 72.3 °F 56.7 °F 29.68 in East 2.0 mph 5.0 mph 58% 0.00 in 570 W/m2
16:44 72.1 °F 55.0 °F 29.68 in ENE 2.0 mph 3.0 mph 55% 0.00 in 555 W/m2
16:50 72.0 °F 56.9 °F 29.68 in ENE 3.0 mph 3.0 mph 59% 0.00 in 536 W/m2
16:56 72.1 °F 55.5 °F 29.68 in ENE 3.0 mph 5.0 mph 56% 0.00 in 520 W/m2
17:02 71.9 °F 56.3 °F 29.68 in NNE 3.0 mph 3.0 mph 58% 0.00 in 501 W/m2
17:08 71.9 °F 55.3 °F 29.67 in North 4.0 mph 6.0 mph 56% 0.00 in 483 W/m2
17:14 71.8 °F 56.2 °F 29.67 in ENE 4.0 mph 6.0 mph 58% 0.00 in 464 W/m2
17:20 72.2 °F 56.6 °F 29.67 in ENE 3.0 mph 7.0 mph 58% 0.00 in 441 W/m2
17:26 71.9 °F 55.3 °F 29.67 in East 4.0 mph 7.0 mph 56% 0.00 in 399 W/m2
17:32 72.1 °F 55.5 °F 29.67 in ESE 3.0 mph 3.0 mph 56% 0.00 in 345 W/m2
17:36 71.9 °F 56.3 °F 29.67 in East 3.0 mph 4.0 mph 58% 0.00 in 178 W/m2
17:42 71.9 °F 55.3 °F 29.67 in East 3.0 mph 5.0 mph 56% 0.00 in 297 W/m2
17:48 72.1 °F 56.0 °F 29.67 in SE 3.0 mph 6.0 mph 57% 0.00 in 151 W/m2
17:54 72.1 °F 56.0 °F 29.67 in East 2.0 mph 3.0 mph 57% 0.00 in 125 W/m2
18:00 72.1 °F 56.0 °F 29.67 in East 2.0 mph 3.0 mph 57% 0.00 in 70 W/m2
18:05 72.1 °F 56.0 °F 29.66 in ENE 3.0 mph 4.0 mph 57% 0.00 in 69 W/m2
18:12 72.2 °F 56.6 °F 29.66 in East 3.0 mph 3.0 mph 58% 0.00 in 65 W/m2
18:18 71.9 °F 56.8 °F 29.66 in SSE 3.0 mph 4.0 mph 59% 0.00 in 65 W/m2
18:24 71.8 °F 56.2 °F 29.67 in ENE 4.0 mph 5.0 mph 58% 0.00 in 49 W/m2
18:29 71.6 °F 57.0 °F 29.67 in ESE 3.0 mph 4.0 mph 60% 0.00 in 51 W/m2
18:36 71.7 °F 56.6 °F 29.67 in ESE 2.0 mph 4.0 mph 59% 0.00 in 58 W/m2
18:42 71.5 °F 56.4 °F 29.67 in SE 2.0 mph 3.0 mph 59% 0.00 in 65 W/m2
18:48 71.4 °F 56.3 °F 29.67 in ENE 2.0 mph 3.0 mph 59% 0.00 in 39 W/m2
18:54 71.3 °F 56.2 °F 29.67 in ENE 3.0 mph 4.0 mph 59% 0.00 in 32 W/m2
19:00 71.2 °F 56.1 °F 29.67 in East 3.0 mph 3.0 mph 59% 0.00 in 46 W/m2
19:06 71.2 °F 56.6 °F 29.67 in NE 3.0 mph 3.0 mph 60% 0.00 in 49 W/m2
19:12 71.0 °F 56.9 °F 29.67 in ENE 2.0 mph 2.0 mph 61% 0.00 in 26 W/m2
19:18 70.8 °F 56.2 °F 29.68 in ENE 2.0 mph 5.0 mph 60% 0.00 in 23 W/m2
19:24 70.7 °F 56.6 °F 29.68 in NE 2.0 mph 2.0 mph 61% 0.00 in 23 W/m2
19:30 70.3 °F 56.2 °F 29.68 in ENE 1.0 mph 3.0 mph 61% 0.00 in 18 W/m2
19:36 70.0 °F 55.9 °F 29.68 in East 2.0 mph 3.0 mph 61% 0.00 in 16 W/m2
19:42 69.7 °F 55.6 °F 29.68 in ENE 1.0 mph 1.0 mph 61% 0.00 in 12 W/m2
19:48 69.4 °F 56.3 °F 29.68 in East 2.0 mph 3.0 mph 63% 0.00 in 9 W/m2
19:54 69.2 °F 55.6 °F 29.68 in East 2.0 mph 4.0 mph 62% 0.00 in 5 W/m2
20:00 68.8 °F 55.7 °F 29.68 in ENE 1.0 mph 3.0 mph 63% 0.00 in 0 W/m2
20:06 68.4 °F 56.2 °F 29.68 in ENE 1.0 mph 3.0 mph 65% 0.00 in 0 W/m2
20:12 67.9 °F 56.1 °F 29.68 in ENE 2.0 mph 4.0 mph 66% 0.00 in 0 W/m2
20:18 67.7 °F 55.9 °F 29.68 in ESE 3.0 mph 4.0 mph 66% 0.00 in 0 W/m2
20:24 67.4 °F 55.6 °F 29.68 in ENE 2.0 mph 3.0 mph 66% 0.00 in 0 W/m2
20:30 67.0 °F 55.7 °F 29.68 in East 2.0 mph 2.0 mph 67% 0.00 in 0 W/m2
20:36 66.6 °F 55.3 °F 29.69 in NE 2.0 mph 5.0 mph 67% 0.00 in 0 W/m2
20:42 66.4 °F 55.5 °F 29.69 in East 2.0 mph 2.0 mph 68% 0.00 in 0 W/m2
20:48 66.0 °F 55.5 °F 29.69 in NE 2.0 mph 5.0 mph 69% 0.00 in 0 W/m2
20:54 65.6 °F 55.5 °F 29.69 in ENE 2.0 mph 2.0 mph 70% 0.00 in 0 W/m2
21:00 65.4 °F 55.4 °F 29.69 in East 2.0 mph 2.0 mph 70% 0.00 in 0 W/m2
21:06 65.2 °F 55.2 °F 29.69 in East 2.0 mph 3.0 mph 70% 0.00 in 0 W/m2
21:12 65.1 °F 55.1 °F 29.70 in ENE 2.0 mph 5.0 mph 70% 0.00 in 0 W/m2
21:18 64.8 °F 55.2 °F 29.70 in NE 3.0 mph 5.0 mph 71% 0.00 in 0 W/m2
21:24 64.5 °F 54.9 °F 29.70 in East 3.0 mph 3.0 mph 71% 0.00 in 0 W/m2
21:30 64.3 °F 55.1 °F 29.70 in ENE 2.0 mph 2.0 mph 72% 0.00 in 0 W/m2
21:36 64.1 °F 54.9 °F 29.70 in ENE 2.0 mph 2.0 mph 72% 0.00 in 0 W/m2
21:42 63.8 °F 55.0 °F 29.70 in SE 1.0 mph 1.0 mph 73% 0.00 in 0 W/m2
21:48 63.5 °F 54.7 °F 29.70 in ESE 2.0 mph 2.0 mph 73% 0.00 in 0 W/m2
21:54 63.3 °F 54.9 °F 29.70 in ENE 1.0 mph 3.0 mph 74% 0.00 in 0 W/m2
22:00 63.1 °F 54.7 °F 29.70 in East 2.0 mph 5.0 mph 74% 0.00 in 0 W/m2
22:06 63.0 °F 54.9 °F 29.70 in ESE 2.0 mph 5.0 mph 75% 0.00 in 0 W/m2
22:12 62.8 °F 54.8 °F 29.70 in SE 2.0 mph 2.0 mph 75% 0.00 in 0 W/m2
22:18 62.5 °F 54.8 °F 29.70 in East 1.0 mph 2.0 mph 76% 0.00 in 0 W/m2
22:24 62.4 °F 54.7 °F 29.70 in East 1.0 mph 2.0 mph 76% 0.00 in 0 W/m2
22:30 62.2 °F 54.9 °F 29.70 in East 2.0 mph 2.0 mph 77% 0.00 in 0 W/m2
22:36 62.0 °F 54.7 °F 29.70 in East 2.0 mph 5.0 mph 77% 0.00 in 0 W/m2
22:42 61.9 °F 54.6 °F 29.70 in ENE 2.0 mph 2.0 mph 77% 0.00 in 0 W/m2
22:48 61.7 °F 54.8 °F 29.70 in East 1.0 mph 3.0 mph 78% 0.00 in 0 W/m2
22:54 61.5 °F 54.9 °F 29.70 in East 2.0 mph 3.0 mph 79% 0.00 in 0 W/m2
23:00 61.4 °F 54.8 °F 29.70 in ENE 2.0 mph 4.0 mph 79% 0.00 in 0 W/m2
23:06 61.2 °F 54.6 °F 29.70 in ENE 2.0 mph 4.0 mph 79% 0.00 in 0 W/m2
23:12 60.9 °F 54.7 °F 29.70 in ENE 2.0 mph 2.0 mph 80% 0.00 in 0 W/m2
23:18 60.5 °F 54.6 °F 29.70 in ENE 1.0 mph 2.0 mph 81% 0.00 in 0 W/m2
23:24 60.1 °F 54.6 °F 29.70 in ENE 1.0 mph 3.0 mph 82% 0.00 in 0 W/m2
23:30 60.1 °F 54.6 °F 29.70 in ENE 2.0 mph 2.0 mph 82% 0.00 in 0 W/m2
23:36 59.9 °F 54.4 °F 29.70 in ENE 2.0 mph 2.0 mph 82% 0.00 in 0 W/m2
23:42 60.1 °F 54.6 °F 29.70 in ENE 2.0 mph 2.0 mph 82% 0.00 in 0 W/m2
23:48 60.0 °F 54.5 °F 29.70 in ENE 2.0 mph 3.0 mph 82% 0.00 in 0 W/m2
23:54 59.8 °F 54.3 °F 29.70 in East 2.0 mph 3.0 mph 82% 0.00 in 0 W/m2
Country Meadow, Clay, NY, USA
Compliments of Weather Underground - 2 mb